YAMAL 402               
1 39022U 12070A   19258.76901479  .00000077  00000-0  00000-0 0  9998
2 39022   0.0126 127.1713 0002969  57.7951 141.2158  1.00272630 24660
BREEZE-M R/B            
1 39023U 12070B   19258.13714465 -.00000063  00000-0  00000-0 0  9993
2 39023  24.6971 160.2520 6386328  98.5743 333.4686  2.09996958 51226
BREEZE-M DEB [TANK]     
1 39024U 12070C   19257.31089436 -.00000062  00000-0  16581-3 0  9999
2 39024  47.9073 346.0664 7187673 259.7144  19.5039  2.28419405 56272